According to the National Weather Service River Forecast Center, New Orleans will still be at flood stage of 17 on 06-17-11, Baton Rouge will drop from 44.7 (05-21-11) to 37.5 on 06-17-11.

------------------------------------

000
fgus64 korn 202030
esporn
extended streamflow prediction
national weather service river forecast center, slidell, la
100 pm cdt fri may 20 2011

date cpgm7 ciri2 nmdm7 tptt1 crtm7 osga4 memt1 heea4 arsa4
05-21-11 34.5 49.2 39.0 39.8 39.2 38.7 40.3 52.2 51.2
05-22-11 34.6 48.1 37.9 38.7 38.2 37.7 39.3 51.2 50.4
05-23-11 35.0 47.3 36.9 37.7 37.1 36.7 38.3 50.2 49.5
05-24-11 35.0 46.8 36.0 36.8 36.1 35.7 37.4 49.2 48.6
05-25-11 34.3 46.4 35.5 36.1 35.2 34.7 36.3 48.2 47.7
05-26-11 34.1 45.8 35.0 35.6 34.7 34.0 35.3 47.3 46.7
05-27-11 34.5 45.0 34.3 35.0 34.1 33.5 34.4 46.3 45.7
05-28-11 35.4 44.6 33.7 34.3 33.5 32.8 33.9 45.4 45.1
05-29-11 36.3 44.2 33.3 33.9 33.0 32.3 33.2 44.9 44.6
05-30-11 36.8 43.8 32.9 33.5 32.6 31.8 32.7 44.2 44.2
05-31-11 36.5 43.3 32.5 33.0 32.1 31.4 32.2 43.7 43.9
06-01-11 34.8 42.5 31.8 32.4 31.6 30.9 31.8 43.2 43.5
06-02-11 32.3 41.4 30.9 31.6 30.8 30.2 31.3 42.8 43.2
06-03-11 30.0 40.0 29.6 30.4 29.7 29.3 30.6 42.3 43.0
06-04-11 28.5 38.4 28.1 29.0 28.3 28.0 29.7 41.6 42.7
06-05-11 27.3 36.8 26.5 27.4 26.8 26.6 28.4 40.7 42.3
06-06-11 26.2 35.1 24.9 25.7 25.1 25.0 27.0 39.4 41.7
06-07-11 25.3 33.8 23.4 24.2 23.6 23.4 25.4 38.0 41.0
06-08-11 24.5 32.9 22.3 23.0 22.3 22.0 23.8 36.4 40.1
06-09-11 24.0 32.2 21.5 22.1 21.3 20.8 22.4 34.8 39.2
06-10-11 23.5 31.5 20.8 21.4 20.6 20.0 21.2 33.4 38.2
06-11-11 22.9 30.8 20.1 20.7 19.9 19.3 20.4 32.2 37.3
06-12-11 22.3 30.1 19.4 20.0 19.2 18.6 19.7 31.4 36.7
06-13-11 21.7 29.4 18.7 19.3 18.5 17.9 19.0 30.7 36.1
06-14-11 21.1 28.7 18.0 18.6 17.8 17.2 18.3 30.0 35.7
06-15-11 20.4 28.0 17.3 17.9 17.1 16.5 17.6 29.3 35.3
06-16-11 19.5 27.3 16.6 17.2 16.4 15.8 16.9 28.6 34.9
06-17-11 18.5 26.5 15.8 16.5 15.6 15.0 16.2 28.0 34.5

date geem6 vckm6 ntzm6 rrll1 btrl1 donl1 rrvl1 norl1
05-21-11 62.7 56.9 61.8 62.7 44.7 32.4 23.8 17.0
05-22-11 62.0 56.8 61.8 62.6 44.7 32.4 23.8 17.0
05-23-11 61.2 56.6 61.7 62.5 44.7 32.4 23.8 17.0
05-24-11 60.3 56.4 61.6 62.5 44.7 32.4 23.8 17.0
05-25-11 59.4 56.2 61.5 62.5 44.7 32.4 23.8 17.0
05-26-11 58.5 55.9 61.4 62.5 44.7 32.4 23.8 17.0
05-27-11 57.5 55.6 61.3 62.5 44.7 32.4 23.8 17.0
05-28-11 56.7 55.1 61.0 62.5 44.7 32.4 23.8 17.0
05-29-11 56.1 54.4 60.6 62.5 44.7 32.4 23.8 17.0
05-30-11 55.7 53.6 60.0 62.5 44.7 32.4 23.8 17.0
05-31-11 55.3 53.1 59.2 62.5 44.7 32.4 23.8 17.0
06-01-11 55.0 52.7 58.8 62.5 44.7 32.4 23.8 17.0
06-02-11 54.7 52.3 58.4 62.5 44.7 32.4 23.8 17.0
06-03-11 54.4 51.9 58.0 62.5 44.7 32.4 23.8 17.0
06-04-11 54.1 51.6 57.7 62.2 44.4 32.2 23.8 17.0
06-05-11 53.8 51.3 57.4 61.9 44.1 32.0 23.8 17.0
06-06-11 53.3 50.9 57.1 61.6 43.9 31.8 23.8 17.0
06-07-11 52.7 50.3 56.8 61.4 43.7 31.6 23.8 17.0
06-08-11 51.8 49.5 56.3 61.0 43.4 31.4 23.8 17.0
06-09-11 50.9 48.6 55.6 60.6 43.0 31.1 23.8 17.0
06-10-11 50.0 47.5 54.7 60.0 42.4 30.6 23.8 17.0
06-11-11 49.1 46.4 53.8 59.2 41.7 30.1 23.8 17.0
06-12-11 48.3 45.4 52.8 58.3 40.9 29.5 23.8 17.0
06-13-11 47.7 44.4 51.8 57.4 40.1 28.8 23.8 17.0
06-14-11 47.2 43.6 51.0 56.6 39.4 28.2 23.8 17.0
06-15-11 46.8 43.0 50.2 55.8 38.7 27.7 23.8 17.0
06-16-11 46.4 42.5 49.7 55.0 38.0 27.2 23.8 17.0
06-17-11 46.0 42.0 49.2 54.6 37.5 26.8 23.8 17.0

note: Stage forecasts are based on future rainfall covering
the next 5 days.

End orn